TimeCDT,TemperatureF,Dew PointF,Humidity,Sea Level PressureIn,VisibilityMPH,Wind Direction,Wind SpeedMPH,Gust SpeedMPH,PrecipitationIn,Events,Conditions,WindDirDegrees,DateUTC
12:53 AM,80.1,75.9,87,29.78,10.0,SE,8.1,-,N/A,,Mostly Cloudy,140,2013-09-21 05:53:00
1:53 AM,79.0,77.0,94,29.76,5.0,NE,5.8,-,0.04,Rain,Rain,50,2013-09-21 06:53:00
2:01 AM,78.8,77.0,94,29.77,2.5,ESE,4.6,-,0.06,Rain,Heavy Rain,120,2013-09-21 07:01:00
2:05 AM,78.8,77.0,94,29.77,1.8,Calm,Calm,-,0.16,Rain,Heavy Rain,0,2013-09-21 07:05:00
2:10 AM,78.8,77.0,94,29.77,2.0,Calm,Calm,-,0.20,Rain,Heavy Rain,0,2013-09-21 07:10:00
2:14 AM,78.8,77.0,94,29.77,2.5,Calm,Calm,-,0.22,Rain,Heavy Rain,0,2013-09-21 07:14:00
2:25 AM,78.8,77.0,94,29.78,1.0,WSW,6.9,-,0.36,Rain,Heavy Rain,240,2013-09-21 07:25:00
2:32 AM,78.8,77.0,94,29.78,0.8,WSW,8.1,20.7,0.57,Rain,Heavy Rain,240,2013-09-21 07:32:00
2:53 AM,75.9,75.0,97,29.78,0.8,SW,15.0,21.9,1.43,Rain,Heavy Rain,230,2013-09-21 07:53:00
3:04 AM,75.2,73.4,94,29.77,0.8,South,13.8,31.1,0.59,Rain,Heavy Rain,190,2013-09-21 08:04:00
3:11 AM,75.2,75.2,100,29.79,0.8,SW,6.9,-,0.82,Rain,Heavy Rain,230,2013-09-21 08:11:00
3:25 AM,75.2,73.4,94,29.77,2.0,South,3.5,-,1.20,Rain,Rain,190,2013-09-21 08:25:00
3:32 AM,75.2,73.4,94,29.78,5.0,WSW,3.5,-,1.22,Rain,Rain,250,2013-09-21 08:32:00
3:53 AM,75.9,73.9,94,29.77,7.0,SSW,4.6,-,1.27,Rain,Rain,200,2013-09-21 08:53:00
4:17 AM,75.2,73.4,94,29.77,2.5,Variable,3.5,-,0.09,Rain,Heavy Rain,0,2013-09-21 09:17:00
4:29 AM,75.2,73.4,94,29.78,3.0,NW,4.6,-,0.17,Rain,Heavy Rain,310,2013-09-21 09:29:00
4:44 AM,75.2,73.4,94,29.77,2.0,Calm,Calm,-,0.30,Rain,Heavy Rain,0,2013-09-21 09:44:00
4:49 AM,75.2,73.4,94,29.77,3.0,NNW,4.6,-,0.32,Rain,Heavy Rain,340,2013-09-21 09:49:00
4:53 AM,75.0,73.0,94,29.76,4.0,NNW,5.8,-,0.34,Rain,Heavy Rain,330,2013-09-21 09:53:00
5:16 AM,73.4,73.4,100,29.77,3.0,Variable,4.6,-,0.25,Rain,Heavy Rain,0,2013-09-21 10:16:00
5:44 AM,73.4,73.4,100,29.77,3.0,East,9.2,-,0.42,Rain,Rain,100,2013-09-21 10:44:00
5:53 AM,73.9,73.0,97,29.77,5.0,East,6.9,-,0.47,Rain,Heavy Rain,90,2013-09-21 10:53:00
6:14 AM,73.4,73.4,100,29.78,7.0,ESE,4.6,-,0.07,Rain,Rain,110,2013-09-21 11:14:00
6:26 AM,73.4,73.4,100,29.78,6.0,Calm,Calm,-,0.11,Rain,Rain,0,2013-09-21 11:26:00
6:53 AM,73.9,73.0,97,29.78,8.0,SSE,4.6,-,0.16,Rain,Rain,160,2013-09-21 11:53:00
7:53 AM,73.9,73.0,97,29.77,10.0,SSE,6.9,-,0.09,Rain,Light Rain,150,2013-09-21 12:53:00
8:00 AM,73.4,73.4,100,29.77,10.0,SSE,6.9,-,0.00,Rain,Light Rain,150,2013-09-21 13:00:00
8:53 AM,73.9,73.0,97,29.78,10.0,South,4.6,-,0.01,Rain,Light Rain,190,2013-09-21 13:53:00
9:53 AM,75.0,73.0,94,29.79,10.0,SSE,3.5,-,0.01,,Mostly Cloudy,150,2013-09-21 14:53:00
10:45 AM,75.2,73.4,94,29.79,10.0,ESE,3.5,-,0.00,,Partly Cloudy,120,2013-09-21 15:45:00
10:53 AM,75.9,73.0,91,29.79,10.0,Calm,Calm,-,0.00,,Mostly Cloudy,0,2013-09-21 15:53:00
11:22 AM,75.2,73.4,94,29.79,10.0,ENE,3.5,-,N/A,,Mostly Cloudy,70,2013-09-21 16:22:00
11:40 AM,75.2,73.4,94,29.79,10.0,ESE,4.6,-,0.00,Rain,Light Rain,110,2013-09-21 16:40:00
11:50 AM,77.0,73.4,89,29.79,10.0,ESE,4.6,-,0.00,,Overcast,110,2013-09-21 16:50:00
11:53 AM,77.0,73.0,88,29.79,10.0,East,4.6,-,0.00,,Overcast,90,2013-09-21 16:53:00
12:53 PM,78.1,73.0,84,29.78,10.0,East,4.6,-,N/A,,Overcast,100,2013-09-21 17:53:00
1:53 PM,78.1,73.0,84,29.76,10.0,Calm,Calm,-,0.00,Rain,Light Rain,0,2013-09-21 18:53:00
2:00 PM,75.2,73.4,94,29.75,8.0,NNE,3.5,-,0.02,Rain,Heavy Rain,30,2013-09-21 19:00:00
2:22 PM,75.2,73.4,94,29.75,8.0,NE,4.6,-,0.16,Rain,Heavy Rain,50,2013-09-21 19:22:00
2:53 PM,75.0,73.9,96,29.74,8.0,NNE,4.6,-,0.38,Rain,Light Rain,30,2013-09-21 19:53:00
3:42 PM,75.2,73.4,94,29.73,5.0,Variable,4.6,-,0.02,Rain,Rain,0,2013-09-21 20:42:00
3:51 PM,75.2,73.4,94,29.73,2.5,Variable,4.6,-,0.04,Rain,Rain,0,2013-09-21 20:51:00
3:53 PM,75.0,73.0,94,29.73,2.5,Variable,4.6,-,0.05,Rain,Rain,0,2013-09-21 20:53:00
4:18 PM,73.4,71.6,94,29.73,4.0,NNE,11.5,17.3,0.08,Rain,Rain,20,2013-09-21 21:18:00
4:30 PM,73.4,71.6,94,29.73,1.8,NNE,9.2,16.1,0.14,Rain,Heavy Rain,30,2013-09-21 21:30:00
4:49 PM,71.6,71.6,100,29.73,3.0,NNE,11.5,19.6,0.26,Rain,Heavy Rain,30,2013-09-21 21:49:00
4:53 PM,72.0,71.1,97,29.73,3.0,NNE,10.4,19.6,0.28,Rain,Rain,30,2013-09-21 21:53:00
5:53 PM,72.0,70.0,93,29.74,7.0,North,6.9,-,0.07,Rain,Rain,10,2013-09-21 22:53:00
6:53 PM,72.0,70.0,93,29.75,7.0,NNE,5.8,-,0.05,Rain,Light Rain,30,2013-09-21 23:53:00
7:53 PM,71.1,69.1,93,29.75,7.0,NNE,8.1,-,0.01,,Overcast,30,2013-09-22 00:53:00
8:53 PM,70.0,68.0,93,29.78,8.0,NNE,6.9,-,0.00,Rain,Light Rain,30,2013-09-22 01:53:00
9:40 PM,69.8,68.0,94,29.79,10.0,NNE,6.9,-,0.01,,Overcast,30,2013-09-22 02:40:00
9:49 PM,69.8,68.0,94,29.79,10.0,NNE,8.1,-,0.01,,Overcast,30,2013-09-22 02:49:00
9:53 PM,70.0,68.0,93,29.79,10.0,NE,8.1,-,0.01,,Overcast,40,2013-09-22 02:53:00
10:53 PM,69.1,68.0,96,29.80,10.0,NE,9.2,-,N/A,,Mostly Cloudy,40,2013-09-22 03:53:00
11:53 PM,70.0,68.0,93,29.80,10.0,NNE,6.9,-,N/A,,Mostly Cloudy,30,2013-09-22 04:53:00